Location: Il Ritiro
(43.4167°N, 13.1333°E)
Time: 01:37:20
(UTC+00:00)

OAO 2 Rocket - Pass Details

Date: 05 July 2020
Orbit: 676 x 746 km, 35.0° (Epoch: 11 August)

Event Time Altitude Azimuth Distance (km) Brightness Sun altitude
Rises 19:58:29 0° 242° (WSW) 3,157 6.9 -10.3°
Reaches altitude 10° 20:01:09 10° 233° (SW) 2,241 6.0 -10.7°
Maximum altitude 20:05:46 31° 172° (S) 1,285 4.2 -11.3°
Enters shadow 20:09:31 14° 117° (ESE) 1,976 5.1 -11.7°
